TimeEST,TemperatureF,Dew PointF,Humidity,Sea Level PressureIn,VisibilityMPH,Wind Direction,Wind SpeedMPH,Gust SpeedMPH,PrecipitationIn,Events,Conditions,WindDirDegrees,DateUTC
12:15 AM,40.8,39.9,97,30.08,7.0,North,6.9,-,0.01,Rain,Light Rain,360,2013-01-18 05:15:00
12:35 AM,40.1,39.2,97,30.10,10.0,North,8.1,-,0.02,Rain,Light Rain,350,2013-01-18 05:35:00
12:55 AM,40.1,38.7,95,30.12,10.0,NNW,8.1,17.3,0.02,Rain,Light Rain,340,2013-01-18 05:55:00
1:15 AM,39.4,38.1,95,30.14,10.0,North,10.4,18.4,N/A,Rain,Rain,350,2013-01-18 06:15:00
1:35 AM,38.5,37.0,95,30.13,10.0,North,6.9,-,N/A,,Overcast,360,2013-01-18 06:35:00
1:55 AM,38.3,36.7,94,30.13,10.0,North,5.8,-,N/A,,Overcast,360,2013-01-18 06:55:00
2:15 AM,38.3,36.9,95,30.16,10.0,NNW,5.8,-,N/A,,Overcast,340,2013-01-18 07:15:00
2:35 AM,38.3,36.9,95,30.19,10.0,NNW,8.1,-,N/A,,Overcast,330,2013-01-18 07:35:00
2:55 AM,38.3,37.0,95,30.23,10.0,NNW,8.1,-,N/A,,Overcast,330,2013-01-18 07:55:00
3:15 AM,38.3,36.5,93,30.24,10.0,NNW,8.1,-,N/A,,Overcast,330,2013-01-18 08:15:00
3:35 AM,38.3,36.5,93,30.24,10.0,North,4.6,-,N/A,,Overcast,350,2013-01-18 08:35:00
3:55 AM,38.3,36.5,93,30.24,10.0,NNW,4.6,-,N/A,,Overcast,330,2013-01-18 08:55:00
4:15 AM,37.4,36.0,95,30.25,10.0,North,3.5,-,N/A,,Overcast,350,2013-01-18 09:15:00
4:35 AM,37.4,35.8,94,30.26,10.0,NNW,4.6,-,N/A,,Overcast,330,2013-01-18 09:35:00
4:55 AM,36.7,35.2,95,30.26,10.0,NNW,4.6,-,N/A,,Overcast,330,2013-01-18 09:55:00
5:15 AM,36.7,35.2,95,30.27,10.0,NNW,3.5,-,N/A,,Overcast,340,2013-01-18 10:15:00
5:35 AM,36.7,35.2,95,30.28,10.0,NNW,4.6,-,N/A,,Overcast,340,2013-01-18 10:35:00
5:55 AM,36.7,35.6,96,30.30,10.0,Calm,Calm,-,N/A,,Overcast,0,2013-01-18 10:55:00
6:15 AM,36.9,35.6,95,30.30,10.0,Calm,Calm,-,N/A,,Overcast,0,2013-01-18 11:15:00
6:35 AM,36.9,35.6,95,30.31,10.0,NNW,3.5,-,N/A,,Overcast,330,2013-01-18 11:35:00
6:55 AM,36.5,35.1,95,30.32,10.0,Calm,Calm,-,N/A,,Mostly Cloudy,0,2013-01-18 11:55:00
7:15 AM,35.8,34.7,96,30.34,10.0,Calm,Calm,-,N/A,,Scattered Clouds,0,2013-01-18 12:15:00
7:35 AM,35.2,34.3,97,30.35,7.0,Calm,Calm,-,N/A,,Scattered Clouds,0,2013-01-18 12:35:00
7:55 AM,35.1,34.7,99,30.37,7.0,Calm,Calm,-,N/A,,Clear,0,2013-01-18 12:55:00
8:15 AM,35.6,35.1,98,30.39,10.0,Calm,Calm,-,N/A,,Clear,0,2013-01-18 13:15:00
8:35 AM,36.5,34.7,93,30.40,10.0,NNW,4.6,-,N/A,,Clear,340,2013-01-18 13:35:00
8:55 AM,38.1,34.3,86,30.42,10.0,North,4.6,-,N/A,,Clear,350,2013-01-18 13:55:00
9:15 AM,38.3,33.3,82,30.44,10.0,NNW,3.5,-,N/A,,Clear,340,2013-01-18 14:15:00
9:35 AM,40.1,33.1,76,30.45,10.0,North,3.5,-,N/A,,Clear,360,2013-01-18 14:35:00
9:55 AM,40.5,32.4,73,30.45,10.0,North,4.6,-,N/A,,Clear,360,2013-01-18 14:55:00
10:15 AM,41.9,31.8,67,30.47,10.0,North,6.9,-,N/A,,Clear,10,2013-01-18 15:15:00
10:35 AM,43.2,31.5,63,30.47,10.0,North,9.2,-,N/A,,Clear,350,2013-01-18 15:35:00
10:55 AM,43.9,29.8,58,30.46,10.0,North,5.8,-,N/A,,Clear,350,2013-01-18 15:55:00
11:15 AM,45.3,29.8,55,30.46,10.0,NNE,4.6,-,N/A,,Clear,20,2013-01-18 16:15:00
11:35 AM,45.9,29.1,52,30.45,10.0,NNE,6.9,-,N/A,,Clear,20,2013-01-18 16:35:00
11:55 AM,46.9,27.7,47,30.45,10.0,North,5.8,-,N/A,,Clear,360,2013-01-18 16:55:00
12:15 PM,47.5,28.4,48,30.45,10.0,NNW,4.6,-,N/A,,Clear,340,2013-01-18 17:15:00
12:35 PM,48.6,28.2,45,30.44,10.0,North,3.5,-,N/A,,Clear,350,2013-01-18 17:35:00
12:55 PM,49.1,26.8,42,30.43,10.0,NNE,5.8,-,N/A,,Clear,30,2013-01-18 17:55:00
1:15 PM,49.1,26.2,41,30.43,10.0,North,5.8,-,N/A,,Clear,360,2013-01-18 18:15:00
1:35 PM,50.2,24.1,36,30.43,10.0,NNE,6.9,-,N/A,,Clear,20,2013-01-18 18:35:00
1:55 PM,50.9,24.1,35,30.43,10.0,North,6.9,-,N/A,,Clear,10,2013-01-18 18:55:00
2:15 PM,50.9,24.4,36,30.43,10.0,North,6.9,-,N/A,,Clear,10,2013-01-18 19:15:00
2:35 PM,50.9,23.2,34,30.43,10.0,North,8.1,-,N/A,,Clear,10,2013-01-18 19:35:00
2:55 PM,50.9,22.6,33,30.43,10.0,North,4.6,-,N/A,,Clear,350,2013-01-18 19:55:00
3:15 PM,51.1,23.7,34,30.43,10.0,North,5.8,-,N/A,,Clear,350,2013-01-18 20:15:00
3:35 PM,50.5,22.6,34,30.44,10.0,North,5.8,-,N/A,,Clear,10,2013-01-18 20:35:00
3:55 PM,50.5,21.9,33,30.45,10.0,NNE,3.5,-,N/A,,Clear,20,2013-01-18 20:55:00
4:15 PM,49.8,21.7,33,30.46,10.0,North,5.8,-,N/A,,Clear,360,2013-01-18 21:15:00
4:35 PM,50.0,23.0,35,30.46,10.0,NNE,3.5,-,N/A,,Clear,30,2013-01-18 21:35:00
4:55 PM,48.6,23.4,37,30.47,10.0,Calm,Calm,-,N/A,,Clear,0,2013-01-18 21:55:00
5:15 PM,47.5,23.4,39,30.48,10.0,North,3.5,-,N/A,,Clear,10,2013-01-18 22:15:00
5:35 PM,45.5,25.2,45,30.49,10.0,Calm,Calm,-,N/A,,Clear,0,2013-01-18 22:35:00
5:55 PM,43.7,26.2,50,30.49,10.0,Calm,Calm,-,N/A,,Clear,0,2013-01-18 22:55:00
6:15 PM,42.1,27.0,55,30.50,10.0,Calm,Calm,-,N/A,,Clear,0,2013-01-18 23:15:00
6:35 PM,40.5,27.7,60,30.51,10.0,Calm,Calm,-,N/A,,Clear,0,2013-01-18 23:35:00
6:55 PM,40.6,27.7,60,30.52,10.0,Calm,Calm,-,N/A,,Clear,0,2013-01-18 23:55:00
7:15 PM,40.3,27.5,60,30.52,10.0,Calm,Calm,-,N/A,,Clear,0,2013-01-19 00:15:00
7:35 PM,38.5,27.5,65,30.52,10.0,Calm,Calm,-,N/A,,Clear,0,2013-01-19 00:35:00
7:55 PM,38.3,27.7,66,30.52,10.0,Calm,Calm,-,N/A,,Clear,0,2013-01-19 00:55:00
8:15 PM,37.0,27.7,69,30.52,10.0,Calm,Calm,-,N/A,,Clear,0,2013-01-19 01:15:00
8:35 PM,37.0,27.5,68,30.53,10.0,Calm,Calm,-,N/A,,Clear,0,2013-01-19 01:35:00
8:55 PM,36.1,27.7,71,30.53,10.0,Calm,Calm,-,N/A,,Clear,0,2013-01-19 01:55:00
9:15 PM,36.1,27.9,72,30.53,10.0,Calm,Calm,-,N/A,,Clear,0,2013-01-19 02:15:00
9:55 PM,34.7,27.7,76,30.52,10.0,Calm,Calm,-,N/A,,Clear,0,2013-01-19 02:55:00
10:15 PM,34.3,27.5,76,30.51,10.0,Calm,Calm,-,N/A,,Clear,0,2013-01-19 03:15:00
10:35 PM,33.8,27.5,78,30.51,10.0,Calm,Calm,-,N/A,,Clear,0,2013-01-19 03:35:00
11:15 PM,32.9,27.9,82,30.50,10.0,Calm,Calm,-,N/A,,Clear,0,2013-01-19 04:15:00
11:35 PM,32.5,27.3,81,30.50,10.0,Calm,Calm,-,N/A,,Clear,0,2013-01-19 04:35:00
11:55 PM,32.0,27.7,84,30.51,10.0,Calm,Calm,-,N/A,,Clear,0,2013-01-19 04:55:00